Weather History for Pampa, TX

Change the Weather History Date:

Sunday, April 28, 2013

  Actual Average Record
Temperature  
Mean Temperature 68 °F -  
Max Temperature 86 °F 71 °F 91 °F (1974)
Min Temperature 49 °F 44 °F 32 °F (1965)
Cooling Degree Days 2    
Growing Degree Days 18 (Base 50)    
Moisture  
Dew Point 32 °F    
Average Humidity 32    
Maximum Humidity 61    
Minimum Humidity 10    
Precipitation  
Precipitation 0.00 in - - ()
Sea Level Pressure  
Sea Level Pressure 29.94 in    
Wind  
Wind Speed 15 mph (SW)    
Max Wind Speed 29 mph    
Max Gust Speed 34 mph    
Visibility 10 miles    
Events      
Averages and records for this station are not official NWS values.
T = Trace of Precipitation, MM = Missing Value Source: NWS Daily Summary

Daily Weather History Graph

Daily Weather History Graph

Search for Another Location

Airport:

Trip Planner

Search our weather history database for the weather conditions in past years. The results will help you decide how hot, cold, wet, or windy it might be!

Date:

Astronomy

Apr. 28, 2013 Rise Set
Actual Time 6:55 AM CDT 8:28 PM CDT
Civil Twilight 6:27 AM CDT 8:55 PM CDT
Nautical Twilight 5:55 AM CDT 9:28 PM CDT
Astronomical Twilight 5:21 AM CDT 10:02 PM CDT
Moon 11:56 PM CDT (4/28) 9:17 AM CDT (4/28)
Length of Visible Light 14h 27m
Length of Day
13h 33m
Waning Gibbous, 88% of the Moon is Illuminated
Apr 28
Waning Gibbous
May 2
Last Quarter
May 9
New
May 17
First Quarter
May 24
Full

Hourly Weather History & Observations

Time (CDT) Temp. Dew Point Humidity Pressure Visibility Wind Dir Wind Speed Gust Speed Precip Events Conditions
12:15 AM 58.8 °F 40.1 °F 50% 30.03 in 10.0 mi SSE 17.3 mph 25.3 mph N/A   Clear
12:35 AM 58.1 °F 40.5 °F 52% 30.03 in 10.0 mi South 17.3 mph 21.9 mph N/A   Clear
12:55 AM 57.2 °F 40.8 °F 54% 30.03 in 10.0 mi South 17.3 mph - N/A   Clear
1:15 AM 56.3 °F 41.0 °F 57% 30.03 in 10.0 mi South 16.1 mph 21.9 mph N/A   Clear
1:35 AM 55.9 °F 41.2 °F 58% 30.03 in 10.0 mi South 17.3 mph - N/A   Clear
1:55 AM 55.6 °F 41.0 °F 58% 30.02 in 10.0 mi South 18.4 mph - N/A   Clear
2:15 AM 55.0 °F 40.6 °F 58% 30.02 in 10.0 mi South 17.3 mph - N/A   Clear
2:35 AM 54.5 °F 40.1 °F 58% 30.01 in 10.0 mi South 15.0 mph - N/A   Clear
2:55 AM 53.8 °F 39.6 °F 59% 30.01 in 10.0 mi South 13.8 mph - N/A   Clear
3:15 AM 52.5 °F 39.2 °F 61% 30.00 in 10.0 mi South 15.0 mph - N/A   Clear
3:35 AM 52.2 °F 38.5 °F 60% 30.00 in 10.0 mi South 15.0 mph - N/A   Clear
3:55 AM 51.8 °F 37.8 °F 59% 30.00 in 10.0 mi South 11.5 mph - N/A   Clear
4:15 AM 50.9 °F 37.2 °F 59% 30.00 in 10.0 mi SSW 10.4 mph - N/A   Clear
4:35 AM 51.1 °F 36.5 °F 57% 29.99 in 10.0 mi SSW 18.4 mph - N/A   Clear
4:55 AM 52.2 °F 35.6 °F 53% 30.00 in 10.0 mi SW 13.8 mph - N/A   Clear
5:15 AM 54.5 °F 35.6 °F 49% 30.00 in 10.0 mi SW 18.4 mph 24.2 mph N/A   Clear
5:35 AM 54.5 °F 35.2 °F 48% 30.00 in 10.0 mi SW 17.3 mph - N/A   Clear
5:55 AM 53.8 °F 35.2 °F 50% 30.00 in 10.0 mi SW 15.0 mph - N/A   Clear
6:15 AM 51.3 °F 34.9 °F 54% 30.01 in 10.0 mi West 6.9 mph 10.4 mph N/A   Clear
6:35 AM 50.0 °F 34.7 °F 56% 30.01 in 10.0 mi West 8.1 mph - N/A   Clear
6:55 AM 49.3 °F 34.5 °F 57% 30.02 in 10.0 mi West 9.2 mph - N/A   Clear
7:15 AM 49.5 °F 34.7 °F 57% 30.02 in 10.0 mi West 6.9 mph - N/A   Clear
7:35 AM 50.4 °F 34.7 °F 55% 30.03 in 10.0 mi West 8.1 mph - N/A   Clear
8:15 AM 57.6 °F 34.0 °F 41% 30.03 in 10.0 mi West 12.7 mph - N/A   Clear
8:35 AM 60.6 °F 34.5 °F 38% 30.03 in 10.0 mi West 16.1 mph - N/A   Clear
8:55 AM 63.5 °F 35.1 °F 35% 30.03 in 7.0 mi West 18.4 mph 27.6 mph N/A   Clear
9:15 AM 65.7 °F 35.1 °F 32% 30.02 in 10.0 mi West 23.0 mph - N/A   Clear
9:35 AM 68.0 °F 35.1 °F 30% 30.02 in 10.0 mi West 25.3 mph 31.1 mph N/A   Clear
9:55 AM 68.7 °F 35.1 °F 29% 30.01 in 10.0 mi WSW 27.6 mph - N/A   Clear
10:15 AM 70.0 °F 35.2 °F 28% 30.00 in 10.0 mi WSW 28.8 mph 34.5 mph N/A   Clear
10:35 AM 71.6 °F 35.8 °F 27% 30.00 in 10.0 mi WSW 21.9 mph 34.5 mph N/A   Clear
10:55 AM 72.7 °F 35.8 °F 26% 30.00 in 10.0 mi West 24.2 mph 31.1 mph N/A   Clear
11:15 AM 74.3 °F 36.1 °F 25% 29.99 in 10.0 mi WSW 21.9 mph 29.9 mph N/A   Clear
11:35 AM 76.5 °F 36.5 °F 24% 29.98 in 10.0 mi West 19.6 mph 26.5 mph N/A   Clear
11:55 AM 77.9 °F 37.0 °F 23% 29.97 in 10.0 mi West 19.6 mph 32.2 mph N/A   Clear
12:15 PM 79.3 °F 36.9 °F 22% 29.96 in 10.0 mi West 21.9 mph 27.6 mph N/A   Clear
12:35 PM 81.5 °F 34.2 °F 18% 29.96 in 10.0 mi West 15.0 mph 21.9 mph N/A   Clear
12:55 PM 82.2 °F 32.0 °F 16% 29.95 in 10.0 mi WSW 15.0 mph 21.9 mph N/A   Clear
1:15 PM 82.9 °F 29.7 °F 14% 29.95 in 10.0 mi West 11.5 mph 21.9 mph N/A   Clear
1:35 PM 84.2 °F 26.1 °F 12% 29.94 in 10.0 mi WNW 10.4 mph 20.7 mph N/A   Scattered Clouds
1:55 PM 83.3 °F 23.4 °F 11% 29.93 in 10.0 mi NW 8.1 mph - N/A   Clear
2:15 PM 83.3 °F 23.5 °F 11% 29.92 in 10.0 mi West 15.0 mph 25.3 mph N/A   Clear
2:35 PM 84.7 °F 23.4 °F 11% 29.92 in 10.0 mi SSW 5.8 mph - N/A   Clear
2:55 PM 85.3 °F 23.9 °F 11% 29.90 in 10.0 mi West 19.6 mph 25.3 mph N/A   Clear
3:15 PM 86.0 °F 23.9 °F 10% 29.90 in 10.0 mi WSW 9.2 mph 19.6 mph N/A   Clear
3:35 PM 85.3 °F 23.7 °F 11% 29.88 in 10.0 mi WSW 10.4 mph 23.0 mph N/A   Clear
3:55 PM 86.2 °F 23.4 °F 10% 29.87 in 10.0 mi WNW 15.0 mph - N/A   Clear
4:15 PM 85.5 °F 24.1 °F 11% 29.87 in 10.0 mi West 12.7 mph 20.7 mph N/A   Clear
4:35 PM 86.0 °F 25.5 °F 11% 29.86 in 10.0 mi West 10.4 mph 18.4 mph N/A   Clear
4:55 PM 86.4 °F 25.9 °F 11% 29.85 in 10.0 mi West 15.0 mph 19.6 mph N/A   Clear
5:15 PM 85.3 °F 25.2 °F 11% 29.85 in 10.0 mi West 5.8 mph - N/A   Clear
5:35 PM 85.1 °F 25.3 °F 11% 29.85 in 10.0 mi West 9.2 mph - N/A   Clear
5:55 PM 82.4 °F 25.3 °F 12% 29.84 in 10.0 mi SSW 3.5 mph 10.4 mph N/A   Clear
6:15 PM 85.5 °F 25.5 °F 11% 29.84 in 10.0 mi SW 11.5 mph 16.1 mph N/A   Clear
6:35 PM 85.5 °F 24.4 °F 11% 29.83 in 10.0 mi West 9.2 mph 16.1 mph N/A   Clear
6:55 PM 83.3 °F 24.1 °F 11% 29.83 in 10.0 mi West 5.8 mph - N/A   Clear
7:15 PM 82.4 °F 24.6 °F 12% 29.83 in 10.0 mi South 6.9 mph - N/A   Clear
7:35 PM 81.5 °F 25.0 °F 13% 29.83 in 10.0 mi South 4.6 mph - N/A   Clear
7:55 PM 78.3 °F 27.3 °F 15% 29.83 in 10.0 mi South 4.6 mph - N/A   Clear
8:15 PM 75.4 °F 27.0 °F 17% 29.83 in 10.0 mi South 6.9 mph - N/A   Clear
8:35 PM 73.4 °F 26.4 °F 17% 29.84 in 10.0 mi South 8.1 mph - N/A   Clear
8:55 PM 68.9 °F 25.7 °F 20% 29.84 in 10.0 mi South 8.1 mph - N/A   Clear
9:15 PM 65.5 °F 26.4 °F 23% 29.84 in 10.0 mi South 9.2 mph - N/A   Clear
9:35 PM 61.5 °F 26.4 °F 26% 29.84 in 10.0 mi South 10.4 mph - N/A   Clear
9:55 PM 61.2 °F 27.3 °F 28% 29.85 in 10.0 mi South 11.5 mph - N/A   Clear
10:15 PM 66.6 °F 32.2 °F 28% 29.85 in 10.0 mi South 13.8 mph - N/A   Clear
10:35 PM 65.1 °F 34.0 °F 31% 29.85 in 10.0 mi South 10.4 mph - N/A   Clear
10:55 PM 64.0 °F 34.7 °F 34% 29.85 in 10.0 mi South 12.7 mph - N/A   Clear
11:15 PM 64.4 °F 34.9 °F 33% 29.85 in 10.0 mi South 15.0 mph - N/A   Clear
11:35 PM 65.3 °F 34.7 °F 32% 29.84 in 10.0 mi South 16.1 mph - N/A   Clear
11:55 PM 64.6 °F 34.7 °F 33% 29.84 in 10.0 mi South 15.0 mph - N/A   Clear